Franklin, PA

10:17 PM EST on December 13, 2019 (GMT -0500)
Venango Regional

Weather History for KFKL - October, 2019

Change the Weather History Date:

Friday, October 4, 2019

  Actual Average Record
Temperature  
Mean Temperature 50 °F -  
Max Temperature 57 °F 66 °F 85 °F (1951)
Min Temperature 42 °F 43 °F 26 °F (1974)
Degree Days  
Heating Degree Days 15    
Moisture  
Dew Point 48 °F    
Average Humidity 84    
Maximum Humidity 100    
Minimum Humidity 69    
Precipitation  
Precipitation 0.02 in - - ()
Sea Level Pressure  
Sea Level Pressure 30.23 in    
Wind  
Wind Speed 5 mph (North)    
Max Wind Speed 14 mph    
Max Gust Speed -    
Visibility 10 miles    
Events Rain    
Averages and records for this station are not official NWS values.
T = Trace of Precipitation, MM = Missing Value Source: NWS Daily Summary

Daily Weather History Graph

Daily Weather History Graph

Search for Another Location

Airport or City:

Astronomy

Oct. 04, 2019 Rise Set
Actual Time 7:19 AM EDT 6:56 PM EDT
Civil Twilight 6:51 AM EDT 7:24 PM EDT
Nautical Twilight 6:19 AM EDT 7:56 PM EDT
Astronomical Twilight 5:47 AM EDT 8:28 PM EDT
Moon 1:53 PM EDT (10/4) 11:20 PM EDT (10/4)
Length of Visible Light 12h 32m
Length of Day
11h 37m
Waxing Crescent, 39% of the Moon is Illuminated
Oct 4
Waxing Crescent
Oct 5
First Quarter
Oct 13
Full
Oct 21
Last Quarter
Oct 27
New

Hourly Weather History & Observations

Time (EDT) Temp. Windchill Dew Point Humidity Pressure Visibility Wind Dir Wind Speed Gust Speed Precip Events Conditions
12:08 AM 57.2 °F - 53.6 °F 88% 30.06 in 10.0 mi Calm Calm - N/A   Scattered Clouds
12:49 AM 57.2 °F - 55.4 °F 94% 30.07 in 10.0 mi Variable 3.5 mph - N/A   Overcast
12:56 AM 57.9 °F - 55.0 °F 90% 30.06 in 10.0 mi Variable 3.5 mph - N/A   Overcast
1:19 AM 57.2 °F - 53.6 °F 88% 30.08 in 10.0 mi NW 3.5 mph - N/A   Mostly Cloudy
1:56 AM 57.0 °F - 55.0 °F 93% 30.06 in 10.0 mi WNW 3.5 mph - N/A   Overcast
2:05 AM 57.2 °F - 55.4 °F 94% 30.08 in 10.0 mi WNW 4.6 mph - N/A   Overcast
2:41 AM 57.2 °F - 55.4 °F 94% 30.09 in 10.0 mi WNW 4.6 mph - N/A   Overcast
2:56 AM 57.0 °F - 55.0 °F 93% 30.07 in 10.0 mi West 4.6 mph - N/A   Overcast
3:22 AM 57.2 °F - 55.4 °F 94% 30.09 in 10.0 mi Variable 4.6 mph - N/A   Overcast
3:37 AM 57.2 °F - 53.6 °F 88% 30.10 in 10.0 mi NW 6.9 mph - N/A   Overcast
3:56 AM 57.0 °F - 52.0 °F 83% 30.09 in 10.0 mi Variable 5.8 mph - N/A   Overcast
4:35 AM 55.4 °F - 51.8 °F 88% 30.11 in 10.0 mi WNW 4.6 mph - N/A   Overcast
4:47 AM 55.4 °F - 51.8 °F 88% 30.11 in 10.0 mi WNW 8.1 mph - N/A   Mostly Cloudy
4:56 AM 54.0 °F - 51.1 °F 90% 30.11 in 10.0 mi NW 8.1 mph - N/A   Scattered Clouds
5:56 AM 54.0 °F - 51.1 °F 90% 30.13 in 10.0 mi WNW 10.4 mph - N/A   Mostly Cloudy
6:56 AM 53.1 °F - 48.9 °F 86% 30.16 in 10.0 mi WNW 8.1 mph - N/A   Mostly Cloudy
7:56 AM 52.0 °F - 48.9 °F 89% 30.18 in 10.0 mi WNW 8.1 mph - N/A   Mostly Cloudy
8:56 AM 54.0 °F - 50.0 °F 86% 30.20 in 10.0 mi WNW 8.1 mph - N/A   Overcast
9:10 AM 53.6 °F - 50.0 °F 88% 30.21 in 4.0 mi NW 8.1 mph - 0.00 in Rain Light Rain
9:21 AM 51.8 °F - 51.8 °F 100% 30.22 in 2.5 mi Variable 3.5 mph - 0.00 in Rain Light Rain
9:28 AM 53.6 °F - 51.8 °F 94% 30.22 in 3.0 mi Variable 4.6 mph - 0.00 in Rain Light Rain
9:47 AM 53.6 °F - 51.8 °F 94% 30.22 in 10.0 mi Variable 5.8 mph - 0.00 in   Overcast
9:56 AM 54.0 °F - 52.0 °F 93% 30.22 in 10.0 mi Variable 3.5 mph - 0.00 in   Overcast
10:03 AM 53.6 °F - 51.8 °F 94% 30.23 in 10.0 mi NNW 3.5 mph - N/A   Overcast
10:56 AM 51.1 °F - 48.9 °F 92% 30.27 in 10.0 mi NNE 11.5 mph - 0.02 in   Overcast
11:36 AM 51.8 °F - 46.4 °F 82% 30.28 in 10.0 mi NNE 9.2 mph - N/A   Overcast
11:56 AM 53.1 °F - 46.9 °F 80% 30.29 in 10.0 mi NNE 11.5 mph - N/A   Overcast
12:21 PM 53.6 °F - 46.4 °F 77% 30.28 in 10.0 mi NNE 6.9 mph - N/A   Overcast
12:28 PM 53.6 °F - 44.6 °F 72% 30.29 in 10.0 mi NNE 13.8 mph - N/A   Overcast
12:37 PM 53.6 °F - 46.4 °F 77% 30.29 in 10.0 mi NNE 10.4 mph - N/A   Overcast
12:45 PM 53.6 °F - 44.6 °F 72% 30.29 in 10.0 mi Variable 6.9 mph - N/A   Overcast
12:56 PM 53.1 °F - 46.0 °F 77% 30.30 in 10.0 mi North 9.2 mph - N/A   Overcast
1:56 PM 53.1 °F - 45.0 °F 74% 30.31 in 10.0 mi NNE 8.1 mph - N/A   Overcast
2:27 PM 51.8 °F - 42.8 °F 71% 30.30 in 10.0 mi Variable 6.9 mph - N/A   Overcast
2:56 PM 53.1 °F - 43.0 °F 69% 30.31 in 10.0 mi Variable 5.8 mph - N/A   Overcast
3:56 PM 51.1 °F - 44.1 °F 77% 30.32 in 10.0 mi NE 10.4 mph - N/A   Overcast
4:48 PM 51.8 °F - 44.6 °F 76% 30.31 in 10.0 mi Calm Calm - N/A   Overcast
4:56 PM 51.1 °F - 43.0 °F 74% 30.32 in 10.0 mi Variable 6.9 mph - N/A   Overcast
5:11 PM 50.0 °F - 41.0 °F 71% 30.31 in 10.0 mi NNE 10.4 mph - N/A   Overcast
5:56 PM 48.9 °F - 42.1 °F 77% 30.34 in 10.0 mi NNE 11.5 mph - N/A   Overcast
6:56 PM 48.0 °F - 41.0 °F 77% 30.35 in 10.0 mi NNE 5.8 mph - N/A   Overcast
7:56 PM 46.9 °F - 41.0 °F 80% 30.36 in 10.0 mi NNE 8.1 mph - N/A   Overcast
8:56 PM 46.0 °F 41.9 °F 39.0 °F 76% 30.37 in 10.0 mi NE 8.1 mph - N/A   Overcast
9:56 PM 46.0 °F 43.1 °F 39.0 °F 76% 30.38 in 10.0 mi NE 5.8 mph - N/A   Overcast
10:31 PM 44.6 °F 40.7 °F 37.4 °F 76% 30.36 in 10.0 mi NE 6.9 mph - N/A   Scattered Clouds
10:56 PM 43.0 °F 39.5 °F 37.9 °F 82% 30.39 in 10.0 mi NE 5.8 mph - N/A   Clear
11:56 PM 42.1 °F 37.7 °F 39.0 °F 89% 30.40 in 10.0 mi NE 6.9 mph - N/A   Clear